Hebron, NE

3:54 PM CST on February 23, 2017 (GMT -0600)
Hebron Municipal

Weather History for KHJH - July, 2013

Change the Weather History Date:

Friday, July 5, 2013

  Actual Average Record
Temperature  
Mean Temperature 81 °F -  
Max Temperature 93 °F 89 °F 104 °F (1953)
Min Temperature 69 °F 64 °F 45 °F (1972)
Cooling Degree Days 16    
Growing Degree Days 31 (Base 50)    
Moisture  
Dew Point 54 °F    
Average Humidity 41    
Maximum Humidity 64    
Minimum Humidity 23    
Precipitation  
Precipitation 0.00 in - - ()
Sea Level Pressure  
Sea Level Pressure 29.88 in    
Wind  
Wind Speed 13 mph (South)    
Max Wind Speed 21 mph    
Max Gust Speed 30 mph    
Visibility 10 miles    
Events      
Averages and records for this station are not official NWS values.
T = Trace of Precipitation, MM = Missing Value Source: NWS Daily Summary

Daily Weather History Graph

Daily Weather History Graph

Search for Another Location

Airport or City:

Trip Planner

Search our weather history database for the weather conditions in past years. The results will help you decide how hot, cold, wet, or windy it might be!

Date:

Astronomy

Jul. 05, 2013 Rise Set
Actual Time 6:07 AM CDT 9:02 PM CDT
Civil Twilight 5:34 AM CDT 9:35 PM CDT
Nautical Twilight 4:53 AM CDT 10:16 PM CDT
Astronomical Twilight 4:05 AM CDT 11:04 PM CDT
Moon 4:07 AM CDT (7/5) 6:58 PM CDT (7/5)
Length of Visible Light 16h 00m
Length of Day
14h 55m
Waning Crescent, 6% of the Moon is Illuminated
Jul 5
Waning Crescent
Jul 8
New
Jul 15
First Quarter
Jul 22
Full
Jul 29
Last Quarter

Hourly Weather History & Observations

Time (CDT) Temp. Heat Index Dew Point Humidity Pressure Visibility Wind Dir Wind Speed Gust Speed Precip Events Conditions
12:15 AM 75.4 °F - 53.2 °F 46% 29.92 in 10.0 mi South 13.8 mph - N/A   Clear
12:35 AM 75.4 °F - 53.4 °F 46% 29.91 in 10.0 mi South 13.8 mph - N/A   Clear
12:55 AM 75.2 °F - 53.6 °F 47% 29.91 in 10.0 mi South 15.0 mph 20.7 mph N/A   Clear
1:15 AM 74.5 °F - 53.6 °F 48% 29.91 in 10.0 mi South 12.7 mph 19.6 mph N/A   Clear
1:35 AM 73.9 °F - 53.8 °F 49% 29.91 in 10.0 mi South 11.5 mph 16.1 mph N/A   Clear
1:55 AM 73.4 °F - 54.0 °F 50% 29.91 in 10.0 mi South 10.4 mph - N/A   Clear
2:15 AM 72.9 °F - 54.1 °F 52% 29.91 in 10.0 mi South 9.2 mph - N/A   Scattered Clouds
2:35 AM 72.9 °F - 54.1 °F 52% 29.91 in 10.0 mi South 9.2 mph - N/A   Scattered Clouds
2:55 AM 72.9 °F - 54.1 °F 52% 29.91 in 10.0 mi South 8.1 mph - N/A   Scattered Clouds
3:15 AM 72.7 °F - 54.1 °F 52% 29.91 in 10.0 mi South 9.2 mph - N/A   Clear
3:35 AM 72.9 °F - 54.1 °F 52% 29.90 in 10.0 mi South 9.2 mph - N/A   Clear
3:55 AM 72.9 °F - 54.3 °F 52% 29.90 in 10.0 mi South 10.4 mph - N/A   Clear
4:15 AM 72.5 °F - 54.5 °F 53% 29.90 in 10.0 mi South 9.2 mph - N/A   Clear
4:35 AM 72.0 °F - 54.9 °F 55% 29.90 in 10.0 mi South 9.2 mph - N/A   Clear
4:55 AM 71.6 °F - 55.4 °F 57% 29.90 in 10.0 mi South 6.9 mph - N/A   Clear
5:15 AM 71.2 °F - 55.6 °F 58% 29.90 in 10.0 mi South 6.9 mph - N/A   Clear
5:35 AM 70.9 °F - 55.9 °F 59% 29.90 in 10.0 mi South 6.9 mph - N/A   Clear
5:55 AM 70.0 °F - 56.3 °F 62% 29.90 in 10.0 mi South 8.1 mph - N/A   Clear
6:15 AM 69.8 °F - 56.3 °F 62% 29.90 in 10.0 mi SSE 6.9 mph - N/A   Clear
6:35 AM 69.6 °F - 56.7 °F 63% 29.90 in 10.0 mi SSE 8.1 mph - N/A   Clear
6:55 AM 70.0 °F - 57.2 °F 64% 29.90 in 10.0 mi SSE 8.1 mph - N/A   Scattered Clouds
7:15 AM 71.2 °F - 57.7 °F 62% 29.90 in 10.0 mi South 9.2 mph - N/A   Scattered Clouds
7:35 AM 71.1 °F - 58.1 °F 63% 29.90 in 10.0 mi South 6.9 mph - N/A   Scattered Clouds
7:55 AM 71.6 °F - 58.3 °F 63% 29.91 in 10.0 mi South 5.8 mph - N/A   Clear
8:15 AM 72.5 °F - 58.6 °F 62% 29.91 in 10.0 mi South 9.2 mph - N/A   Clear
8:35 AM 72.7 °F - 58.8 °F 62% 29.91 in 10.0 mi South 11.5 mph 17.3 mph N/A   Clear
8:55 AM 73.0 °F - 59.0 °F 61% 29.91 in 10.0 mi South 12.7 mph 16.1 mph N/A   Light Drizzle
9:15 AM 73.8 °F - 58.5 °F 59% 29.91 in 10.0 mi South 13.8 mph 18.4 mph N/A   Clear
9:35 AM 75.4 °F - 58.8 °F 56% 29.91 in 10.0 mi South 13.8 mph - N/A   Clear
9:55 AM 77.0 °F - 58.8 °F 53% 29.90 in 10.0 mi South 16.1 mph 20.7 mph N/A   Clear
10:15 AM 77.5 °F - 58.6 °F 52% 29.90 in 10.0 mi South 19.6 mph 25.3 mph N/A   Clear
10:35 AM 81.3 °F 81.6 °F 58.8 °F 46% 29.90 in 10.0 mi South 18.4 mph 28.8 mph N/A   Clear
10:55 AM 83.3 °F 82.9 °F 58.1 °F 42% 29.90 in 10.0 mi South 20.7 mph 27.6 mph N/A   Clear
11:15 AM 84.4 °F 83.4 °F 56.5 °F 38% 29.90 in 10.0 mi South 20.7 mph 29.9 mph N/A   Clear
11:35 AM 85.3 °F 84.1 °F 56.1 °F 37% 29.89 in 10.0 mi South 20.7 mph 29.9 mph N/A   Clear
11:55 AM 87.1 °F 85.5 °F 55.2 °F 34% 29.89 in 10.0 mi South 20.7 mph 28.8 mph N/A   Clear
12:15 PM 88.0 °F 85.9 °F 54.1 °F 31% 29.89 in 10.0 mi SSW 18.4 mph 26.5 mph N/A   Clear
12:35 PM 89.1 °F 87.1 °F 54.5 °F 31% 29.88 in 10.0 mi South 13.8 mph 25.3 mph N/A   Clear
12:55 PM 89.4 °F 87.3 °F 54.1 °F 30% 29.88 in 10.0 mi South 16.1 mph 24.2 mph N/A   Clear
1:15 PM 90.0 °F - 52.9 °F 28% 29.88 in 10.0 mi South 20.7 mph 24.2 mph N/A   Clear
1:35 PM 90.5 °F 88.3 °F 54.1 °F 29% 29.87 in 10.0 mi South 18.4 mph 26.5 mph N/A   Clear
1:55 PM 90.9 °F 88.5 °F 53.6 °F 28% 29.87 in 10.0 mi South 19.6 mph 27.6 mph N/A   Clear
2:15 PM 91.4 °F 89.1 °F 53.6 °F 28% 29.86 in 10.0 mi SSW 17.3 mph 24.2 mph N/A   Clear
2:35 PM 91.8 °F - 52.7 °F 26% 29.86 in 10.0 mi South 18.4 mph 23.0 mph N/A   Clear
2:55 PM 91.4 °F - 52.7 °F 27% 29.85 in 10.0 mi South 16.1 mph 25.3 mph N/A   Clear
3:15 PM 92.3 °F - 52.3 °F 26% 29.85 in 10.0 mi South 18.4 mph 27.6 mph N/A   Clear
3:35 PM 92.3 °F - 52.2 °F 25% 29.85 in 10.0 mi SSE 20.7 mph 27.6 mph N/A   Clear
3:55 PM 92.5 °F 89.9 °F 53.2 °F 26% 29.84 in 10.0 mi South 15.0 mph 25.3 mph N/A   Clear
4:15 PM 92.8 °F - 52.7 °F 26% 29.84 in 10.0 mi South 16.1 mph 25.3 mph N/A   Clear
4:35 PM 92.3 °F - 51.4 °F 25% 29.84 in 10.0 mi South 12.7 mph 21.9 mph N/A   Clear
4:55 PM 92.5 °F - 51.8 °F 25% 29.83 in 10.0 mi South 16.1 mph 24.2 mph N/A   Clear
5:15 PM 92.7 °F - 50.0 °F 23% 29.83 in 10.0 mi South 17.3 mph 21.9 mph N/A   Clear
5:35 PM 93.2 °F - 49.8 °F 23% 29.83 in 10.0 mi South 18.4 mph 24.2 mph N/A   Clear
5:55 PM 93.0 °F - 50.2 °F 23% 29.82 in 10.0 mi South 17.3 mph 25.3 mph N/A   Clear
6:15 PM 92.5 °F - 50.4 °F 24% 29.82 in 10.0 mi South 17.3 mph 24.2 mph N/A   Clear
6:35 PM 92.3 °F - 50.5 °F 24% 29.82 in 10.0 mi South 17.3 mph 21.9 mph N/A   Clear
6:55 PM 90.9 °F - 50.0 °F 25% 29.82 in 10.0 mi South 15.0 mph 20.7 mph N/A   Clear
7:15 PM 90.9 °F - 51.3 °F 26% 29.82 in 10.0 mi South 12.7 mph 20.7 mph N/A   Clear
7:35 PM 90.0 °F - 51.4 °F 27% 29.83 in 10.0 mi South 10.4 mph 17.3 mph N/A   Clear
7:55 PM 88.3 °F - 52.3 °F 29% 29.83 in 10.0 mi South 11.5 mph - N/A   Clear
8:15 PM 86.4 °F 84.4 °F 53.4 °F 32% 29.83 in 10.0 mi SSE 6.9 mph - N/A   Clear
8:35 PM 83.5 °F 82.5 °F 55.2 °F 38% 29.83 in 10.0 mi SSE 6.9 mph - N/A   Clear
8:55 PM 83.3 °F 82.1 °F 54.0 °F 36% 29.83 in 10.0 mi SSE 9.2 mph - N/A   Clear
9:15 PM 83.1 °F 81.9 °F 53.2 °F 36% 29.83 in 10.0 mi SSE 9.2 mph - N/A   Clear
9:35 PM 82.4 °F - 52.9 °F 36% 29.84 in 10.0 mi SSE 11.5 mph - N/A   Clear
9:55 PM 82.6 °F - 51.8 °F 34% 29.84 in 10.0 mi SSE 10.4 mph - N/A   Clear
10:15 PM 82.0 °F - 51.3 °F 34% 29.85 in 10.0 mi SSE 10.4 mph - N/A   Clear
10:35 PM 81.5 °F - 51.1 °F 35% 29.86 in 10.0 mi SSE 8.1 mph - N/A   Clear
10:55 PM 80.6 °F - 50.9 °F 35% 29.86 in 10.0 mi SSE 9.2 mph - N/A   Clear
11:15 PM 80.1 °F - 50.5 °F 36% 29.87 in 10.0 mi SSE 9.2 mph 16.1 mph N/A   Clear
11:35 PM 80.1 °F - 50.5 °F 36% 29.86 in 10.0 mi SSE 10.4 mph 18.4 mph N/A   Clear
11:55 PM 79.9 °F - 50.4 °F 36% 29.86 in 10.0 mi SSE 16.1 mph 19.6 mph N/A   Clear